Location: Gilevgi
(36.8751°N, 30.0581°E)
Time: 16:16:48
(UTC+00:00)

CZ-4C R/B - Pass Details

Date: 11 December 2025
Orbit: 484 x 1495 km, 63.4° (Epoch: 16 January)

Event Time Altitude Azimuth Distance (km) Brightness Sun altitude
Rises 15:56:27 0° 327° (NNW) 3,875 5.8 -14.2°
Reaches altitude 10° 15:58:53 10° 327° (NNW) 3,046 5.3 -14.7°
Maximum altitude 16:06:29 88° 242° (WSW) 1,341 3.2 -16.1°
Drops below altitude 10° 16:15:33 10° 152° (SSE) 3,595 5.3 -17.9°
Sets 16:18:39 0° 152° (SSE) 4,604 5.9 -18.5°
